Terminal Aerodrome Forecast
Issued by NWS Buffalo, NY

Home | Current Version | Previous Version | Text Only | Print | Product List | Glossary On
Versions: 1 2 3 4 5 6 7 8 9 10 11 12 13 14 15 16 17 18 19 20 21 22 23 24 25 26 27 28 29 30 31 32 33 34 35 36
000
FTUS41 KBUF 191100
TAFBUF
TAF
KBUF 191125Z 1912/2012 30007KT P6SM -SN OVC016
     FM191400 30008KT P6SM OVC019
     FM191800 29009KT P6SM BKN029
     FM192300 30005KT P6SM OVC060
     FM200500 32004KT P6SM BKN080
     FM200600 VRB03KT P6SM BKN090=

USA.gov is the U.S. government's official web portal to all federal, state and local government web resources and services.